Location: Aranbee
(34.0885°N, 118.2342°W)
Time: 05:25:28
(UTC+00:00)

A-11 Canister half - All Passes

Search period start: 27 November 2020 00:00
Search period end: 07 December 2020 00:00
Orbit: 1516 x 1684 km, 47.2° (Epoch: 26 November)

Date Brightness Start Highest point End Pass type
(mag) Time Alt. Az. Time Alt. Az. Time Alt. Az.
27 Nov - 01:46:04 10° NW 01:56:16 72° NNE 02:06:20 10° ESE visible
27 Nov - 03:51:46 10° WNW 04:00:55 40° SW 04:09:55 10° SSE visible
27 Nov - 17:02:40 10° S 17:09:39 23° SE 17:16:48 10° ENE daylight
27 Nov - 19:03:49 10° SW 19:13:34 82° SE 19:23:40 10° NE daylight
27 Nov - 21:09:56 10° W 21:19:24 47° NNW 21:29:06 10° NE daylight
27 Nov - 23:17:19 10° WNW 23:26:39 40° N 23:36:03 10° ENE daylight
28 Nov - 01:23:06 10° NW 01:33:17 69° NNE 01:43:20 10° ESE visible
28 Nov - 03:28:42 10° WNW 03:38:02 43° SW 03:47:13 10° SSE visible
28 Nov - 16:40:15 10° SSE 16:46:49 21° SE 16:53:32 10° E daylight
28 Nov - 18:40:57 10° SW 18:50:39 78° SE 19:00:42 10° NE daylight
28 Nov - 20:46:53 10° W 20:56:21 48° NNW 21:06:06 10° NE daylight
28 Nov - 22:54:17 10° WNW 23:03:34 39° N 23:12:56 10° ENE daylight
29 Nov - 01:00:08 10° NW 01:10:17 66° NNE 01:20:20 10° ESE visible
29 Nov - 03:05:39 10° WNW 03:15:09 46° SW 03:24:29 10° SSE visible
29 Nov - 16:17:53 10° SSE 16:24:00 19° ESE 16:30:12 10° E daylight
29 Nov - 18:18:06 10° SW 18:27:42 74° SE 18:37:43 10° ENE daylight
29 Nov - 20:23:50 10° W 20:33:19 49° NNW 20:43:05 10° NE daylight
29 Nov - 22:31:14 10° WNW 22:40:29 39° N 22:49:50 10° ENE daylight
30 Nov - 00:37:10 10° NW 00:47:17 64° NNE 00:57:19 10° ESE daylight
30 Nov - 02:42:37 10° WNW 02:52:15 50° SW 03:01:44 10° SSE visible
30 Nov - 15:55:37 10° SSE 16:01:10 17° ESE 16:06:49 10° E daylight
30 Nov - 17:55:16 10° SW 18:04:48 70° SE 18:14:43 10° ENE daylight
30 Nov - 20:00:47 10° W 20:10:17 51° NNW 20:20:05 10° NE daylight
30 Nov - 22:08:12 10° WNW 22:17:25 39° N 22:26:45 10° ENE daylight
01 Dec - 00:14:13 10° NW 00:24:16 61° NNE 00:34:17 10° ESE daylight
01 Dec - 02:19:36 10° WNW 02:29:20 53° SW 02:38:57 10° SSE visible
01 Dec - 04:31:10 10° WSW 04:32:46 10° WSW 04:34:23 10° SW visible
01 Dec - 15:33:26 10° SSE 15:38:21 15° ESE 15:43:19 10° E daylight
01 Dec - 17:32:26 10° SW 17:41:53 66° SE 17:51:44 10° ENE daylight
01 Dec - 19:37:45 10° W 19:47:16 53° NNW 19:57:06 10° NE daylight
01 Dec - 21:45:10 10° WNW 21:54:19 38° N 22:03:39 10° ENE daylight
01 Dec - 23:51:16 10° NW 00:01:15 59° NNE 00:11:15 10° ESE daylight
02 Dec - 01:56:36 10° WNW 02:06:26 57° SW 02:16:10 10° SSE visible
02 Dec - 04:06:36 10° W 04:09:57 12° WSW 04:13:17 10° SW visible
02 Dec - 15:11:25 10° SSE 15:15:32 13° ESE 15:19:41 10° E daylight
02 Dec - 17:09:38 10° SSW 17:19:00 62° SE 17:28:43 10° ENE daylight
02 Dec - 19:14:44 10° W 19:24:15 55° NNW 19:34:06 10° NE daylight
02 Dec - 21:22:07 10° WNW 21:31:15 38° N 21:40:33 10° ENE daylight
02 Dec - 23:28:18 10° NW 23:38:14 56° NNE 23:48:11 10° ESE daylight
03 Dec - 01:33:36 10° WNW 01:43:31 60° SW 01:53:21 10° SSE visible
03 Dec - 03:42:43 10° W 03:47:07 14° WSW 03:51:30 10° SSW visible
03 Dec - 14:49:39 10° SE 14:52:43 12° ESE 14:55:48 10° ESE daylight
03 Dec - 16:46:51 10° SSW 16:56:06 58° SE 17:05:44 10° ENE daylight
03 Dec - 18:51:42 10° WSW 19:01:14 57° NNW 19:11:08 10° NE daylight
03 Dec - 20:59:04 10° WNW 21:08:10 38° N 21:17:27 10° ENE daylight
03 Dec - 23:05:20 10° NW 23:15:13 54° NNE 23:25:07 10° E daylight
04 Dec - 01:10:37 10° WNW 01:20:36 64° SW 01:30:31 10° SE visible
04 Dec - 03:19:05 10° W 03:24:16 15° WSW 03:29:27 10° SSW visible
04 Dec - 14:28:47 10° SE 14:29:54 10° ESE 14:31:02 10° ESE daylight
04 Dec - 16:24:04 10° SSW 16:33:13 54° SE 16:42:43 10° ENE daylight
04 Dec - 18:28:42 10° WSW 18:38:14 59° NNW 18:48:08 10° NE daylight
04 Dec - 20:36:01 10° WNW 20:45:05 38° N 20:54:23 10° ENE daylight
04 Dec - 22:42:22 10° NW 22:52:11 52° NNE 23:02:03 10° E daylight
05 Dec - 00:47:37 10° WNW 00:57:40 68° SW 01:07:40 10° SE daylight
05 Dec - 02:55:35 10° W 03:01:25 17° WSW 03:07:15 10° SSW visible
05 Dec - 16:01:20 10° SSW 16:10:21 50° SE 16:19:41 10° ENE daylight
05 Dec - 18:05:43 10° WSW 18:15:15 61° NNW 18:25:10 10° NE daylight
05 Dec - 20:12:57 10° WNW 20:22:01 39° N 20:31:18 10° ENE daylight
05 Dec - 22:19:25 10° NW 22:29:09 51° NNE 22:38:58 10° E daylight
06 Dec - 00:24:39 10° WNW 00:34:45 72° SW 00:44:48 10° SE daylight
06 Dec - 02:32:11 10° W 02:38:35 19° WSW 02:44:57 10° SSW visible
06 Dec - 15:38:36 10° SSW 15:47:29 47° SE 15:56:40 10° ENE daylight
06 Dec - 17:42:44 10° WSW 17:52:15 64° NNW 18:02:11 10° NE daylight
06 Dec - 19:49:54 10° WNW 19:58:57 39° N 20:08:13 10° ENE daylight
06 Dec - 21:56:27 10° NW 22:06:06 49° NNE 22:15:53 10° E daylight
